Regional Weather Roundup
Issued by NWS

Home | Current Version | Previous Version | Graphics & Text | Print | Product List | Glossary Off
Versions: 1 2 3 4 5 6 7 8 9 10 11 12 13 14 15 16 17 18 19 20 21 22 23 24 25 26 27 28 29 30 31 32 33 34 35 36 37 38 39 40 41 42 43 44 45 46 47 48 49 50

000
ASUS43 KMKX 250559
RWRWI

WISCONSIN REGIONAL WEATHER ROUNDUP
NATIONAL WEATHER SERVICE MILWAUKEE/SULLIVAN WI
100 AM CDT WED APR 25 2018

NOTE: "FAIR" INDICATES FEW OR NO CLOUDS BELOW 12,000 FEET WITH NO
SIGNIFICANT WEATHER AND/OR OBSTRUCTIONS TO VISIBILITY.

WIZ001-002-006>008-014>016-023>028-250700-
NORTHWEST WISCONSIN

CITY           SKY/WX    TMP DP  RH WIND       PRES   REMARKS
SUPERIOR ARPT  FAIR      34  23  63 N5        30.30R WCI  30
ASHLAND        FAIR      32  25  75 NE6       30.28R WCI  26
6HR MIN TEMP:  31; 6HR MAX TEMP:  49;

HAYWARD        FAIR      37  24  59 N9        30.25R WCI  30
6HR MIN TEMP:  36; 6HR MAX TEMP:  53;

SIREN          FAIR      40  24  53 NE6       30.27R
CUMBERLAND     FAIR      37  27  65 N10       30.23S WCI  30
RICE LAKE      FAIR      40  28  62 N8        30.24R WCI  34
6HR MIN TEMP:  35; 6HR MAX TEMP:  51;

CHETEK         FAIR      34  32  93 N3        30.22R
LADYSMITH      FAIR      37  29  72 N9        30.23R WCI  31
6HR MIN TEMP:  33; 6HR MAX TEMP:  47;

EAU CLAIRE     NOT AVBL
MENOMONIE      FAIR      37  33  84 W5        30.21S WCI  34
6HR MIN TEMP:  37; 6HR MAX TEMP:  55;

NEW RICHMOND   FAIR      39  27  61 N8        30.24R WCI  34
OSCEOLA        FAIR      42  27  55 N6        30.28R
$$

WIZ003>005-009-010-017-018-250700-
NORTH CENTRAL WISCONSIN

CITY           SKY/WX    TMP DP  RH WIND       PRES   REMARKS
MANITOWISH WTR FAIR      32  32 100 N6        30.20R WCI  26
ARBOR VITAE    FAIR      32  31  96 N8        30.18S WCI  25
WOODRUFF       FAIR      32  31  96 N8        30.18S WCI  25
RHINELANDER    FAIR      35  33  92 N5        30.18R WCI  31
6HR MIN TEMP:  30; 6HR MAX TEMP:  44; 6HR PCP:  0.04;

EAGLE RIVER    MOCLDY    33  33 100 N6        30.18R WCI  27
6HR MIN TEMP:  29; 6HR MAX TEMP:  40;

LAND O LAKES   FAIR      34  33  96 N6        30.21R WCI  29
6HR MIN TEMP:  29; 6HR MAX TEMP:  39;

PHILLIPS       FAIR      34  30  87 N7        30.20R WCI  27
6HR MIN TEMP:  28; 6HR MAX TEMP:  40;

TOMAHAWK       FAIR      30  29  97 CALM      30.18S FOG
MEDFORD        FAIR      35  33  95 N3        30.17S
MERRILL        FOG       34  34 100 CALM      30.18S VSB 1
$$

WIZ029-030-035-036-043>047-250700-
CENTRAL WISCONSIN

CITY           SKY/WX    TMP DP  RH WIND       PRES   REMARKS
WAUSAU         FAIR      38  37  97 N6        30.15R WCI  33
6HR MIN TEMP:  38; 6HR MAX TEMP:  56; 6HR PCP:  0.02;

MOSINEE        FAIR      37  36  93 N7        30.17R WCI  32
MARSHFIELD     FAIR      40  35  83 NE7       30.15S
6HR MIN TEMP:  40; 6HR MAX TEMP:  54;

STEVENS POINT  CLOUDY    41  38  92 N3        30.16S
WAUPACA        FAIR      46  36  67 CALM      30.16R
6HR MIN TEMP:  46; 6HR MAX TEMP:  64;

WAUTOMA        CLOUDY    46  32  58 N6        30.15S
6HR MIN TEMP:  46; 6HR MAX TEMP:  65;

WISC RAPIDS    CLOUDY    45  37  73 N7        30.16S
6HR MIN TEMP:  45; 6HR MAX TEMP:  63; 6HR PCP: TRACE;

CAMP DOUGLAS   NOT AVBL
$$

WIZ011>013-019>022-031-037>040-048>050-250700-
NORTHEAST WISCONSIN

CITY           SKY/WX    TMP DP  RH WIND       PRES   REMARKS
ANTIGO         FAIR      33  33 100 N6        30.16R WCI  28
SHAWANO        CLOUDY    42  38  84 N7        30.15S
6HR MIN TEMP:  42; 6HR MAX TEMP:  53;

OCONTO         CLOUDY    41  38  89 NE5       30.15S
STURGEON BAY   LGT RAIN  39  36  89 N14       30.14F WCI  31
6HR MIN TEMP:  39; 6HR MAX TEMP:  52; 6HR PCP:  0.01;

GREEN BAY      CLOUDY    43  35  73 N12       30.14S
6HR MIN TEMP:  43; 6HR MAX TEMP:  51;

MANITOWOC      CLOUDY    44  34  67 N10G18    30.13S
6HR MIN TEMP:  44; 6HR MAX TEMP:  52; 6HR PCP: TRACE;

APPLETON       CLOUDY    45  28  53 N9        30.12S
CLINTONVILLE   CLOUDY    44  36  73 N6        30.15R
6HR MIN TEMP:  44; 6HR MAX TEMP:  56;

OSHKOSH        CLOUDY    46  31  55 NE12      30.13S
6HR MIN TEMP:  45; 6HR MAX TEMP:  60;

$$

WIZ032>034-041-042-053>061-250700-
SOUTHWEST WISCONSIN

CITY           SKY/WX    TMP DP  RH WIND       PRES   REMARKS
LA CROSSE      FAIR      46  34  62 N6        30.17F
6HR MIN TEMP:  46; 6HR MAX TEMP:  69;

SPARTA         FAIR      45  37  73 N3        30.18S
VIROQUA        FAIR      44  37  76 N10       30.15S
6HR MIN TEMP:  44; 6HR MAX TEMP:  64;

BOSCOBEL       FAIR      51  34  52 VRB3      30.14S
6HR MIN TEMP:  51; 6HR MAX TEMP:  71;

PRAIRIE DU CHI FAIR      52  32  46 N8        30.13S
PLATTEVILLE    CLOUDY    53  35  50 N18G26    30.09R
$$

WIZ056-057-062-063-064-067-068-250700-
SOUTH CENTRAL WISCONSIN

CITY           SKY/WX    TMP DP  RH WIND       PRES   REMARKS
REEDSBURG      CLOUDY    48  33  57 N8        30.14R
6HR MIN TEMP:  48; 6HR MAX TEMP:  66;

BARABOO/DELLS  CLOUDY    49  32  52 N8        30.13S
LONE ROCK      NOT AVBL
MINERAL POINT  MOCLDY    52  32  46 N18G25    30.09S
MADISON        CLOUDY    50  33  52 NE12      30.11S
6HR MIN TEMP:  50; 6HR MAX TEMP:  64;

MIDDLETON      CLOUDY    52  32  46 NE10      30.12R
WATERTOWN      NOT AVBL
MONROE         MOCLDY    54  45  71 NE15G22   30.07R
JANESVILLE     CLOUDY    50  32  50 NE10G16   30.09R
$$

WIZ051-052-058>065-066-070>072-250700-
SOUTHEAST WISCONSIN

CITY           SKY/WX    TMP DP  RH WIND       PRES   REMARKS
MILWAUKEE      CLOUDY    44  32  62 N17G35    30.10R
6HR MIN TEMP:  43; 6HR MAX TEMP:  49;

WAUKESHA       MOCLDY    43  30  61 NE13G26   30.11R
MILWAUKEE/TIMM CLOUDY    45  28  53 N22G36    30.10R
RACINE         CLOUDY    42  33  70 N21G32    30.09R
6HR MIN TEMP:  41; 6HR MAX TEMP:  47;

BURLINGTON     CLOUDY    46  29  51 NE13G22   30.09R
KENOSHA        CLOUDY    45  31  58 N18G29    30.08R
6HR MIN TEMP:  44; 6HR MAX TEMP:  54;

FOND DU LAC    CLOUDY    46  31  55 NE15      30.13S
6HR MIN TEMP:  46; 6HR MAX TEMP:  62;

SHEBOYGAN      CLOUDY    44  34  67 NE15G21   30.12R
6HR MIN TEMP:  44; 6HR MAX TEMP:  54;

WEST BEND      CLOUDY    43  30  61 NE13      30.11R
JUNEAU         CLOUDY    47  31  55 NE8G18    30.12S
$$

LSZ147-162-250700-
LAKE SUPERIOR

STATION/POSITION TIME  TEMP    WIND        PRES    WAVE
                       AIR SEA DIR/SP/G            HT/PER
                 (UTC) (F)     (DEG/KT/KT) (MB)    (FT/S)
DEVILS ISLAND    0500   37      20/  8/  9 1026.3R
SAXON HARBOR     0540   35     340/  4/  5 1024.4S
$$

LMZ867-665-643>646-250700-
LAKE MICHIGAN

STATION/POSITION TIME  TEMP    WIND        PRES    WAVE
                       AIR SEA DIR/SP/G            HT/PER
                 (UTC) (F)     (DEG/KT/KT) (MB)    (FT/S)
NORTHPORT PIER   0540   38                 1020.7R
KEWAUNEE LAKESHO 0524   45      10/  9/ 20 1020.0
SHEBOYGAN LAKESH 0500   41      10/ 20/ 22 1020.2R
PORT WASHINGTON  0530   45      20/ 17/ 26 1020.3S
MILWAUKEE LAKESH 0530   43      10/ 23/ 28   N/A
KENOSHA   LAKESH 0500   43                 1017.6
$$

TC  - TEMPERATURE IN CELSIUS
VSB - VISIBILITY IN STATUTE MILES
WCI - WIND CHILL INDEX
HX  - HEAT INDEX





USA.gov is the U.S. government's official web portal to all federal, state and local government web resources and services.